Location: Home
(42.5358°N, 72.7383°W)
Time: 12:40:10
(UTC-05:00)

Explorer 7 - Pass Details

Date: 06 December 2021
Orbit: 483 x 674 km, 50.3° (Epoch: 26 January)

Event Time Altitude Azimuth Distance (km) Brightness Sun altitude
Rises 10:12:05 0° 300° (WNW) 2,657 9.9 21.7°
Reaches altitude 10° 10:14:20 10° 300° (WNW) 1,739 9.0 21.8°
Maximum altitude 10:18:16 83° 211° (SSW) 505 7.1 22.1°
Drops below altitude 10° 10:22:01 10° 125° (SE) 1,668 10.3 22.3°
Sets 10:24:09 0° 125° (SE) 2,537 11.1 22.5°
